Home   Weather   Stuttgart   Past weeks

Flag for Germany Past Weather in Stuttgart, Baden-Württemberg, Germany — Yesterday and Last 2 Weeks

Now
68 °F

Passing clouds.


Feels Like: 68 °F
Forecast: 49 / 73 °F
Wind: 8 mph from Northeast

Location: Stuttgart-Echterdingen

Current Time: May 25, 2017 at 2:47:56 pm

Latest Report: May 25, 2017 at 2:20 pm


Visibility: N/A

Pressure: 30.18 "Hg

Humidity: 46%

Dew Point: 46 °F

Location of StuttgartLocation

Past Weather in Stuttgart — Graph

°F

Stuttgart Temperature Yesterday

Maximum temperature yesterday: 68 °F (at 2:20 pm)
Minimum temperature yesterday: 57 °F (at 4:50 am)
Average temperature yesterday: 63 °F

High & Low Weather Summary for the Past Weeks

 TemperatureHumidityPressure
High79 °F (May 17, 3:20 pm)100% (May 14, 6:50 am)30.42 "Hg (May 14, 6:50 am)
Low39 °F (May 21, 5:20 am)29% (May 16, 2:50 pm)29.47 "Hg (May 11, 4:50 pm)
Average60 °F71%30.06 "Hg
* Reported May 10 1:20 pm — May 25 1:50 pm, Stuttgart. Weather by CustomWeather, © 2017

Note: Actual official high and low records may vary slightly from our data, if they occured in-between our weather recording intervals... More about our weather records

Advertising

Stuttgart Weather History for the Previous 24 Hours

Scroll right to see more
 ConditionsComfort  
Time TempWeatherWind HumidityBarometerVisibility
1:50 pm
Thu, May 25
68 °FPassing clouds.8 mph46%30.18 "HgN/A
1:20 pm68 °FPassing clouds.8 mph49%30.18 "HgN/A
12:50 pm68 °FPassing clouds.8 mph46%30.18 "HgN/A
12:20 pm66 °FScattered clouds.9 mph52%30.21 "HgN/A
11:50 am66 °FScattered clouds.5 mph52%30.21 "HgN/A
11:20 am66 °FScattered clouds.7 mph52%30.21 "HgN/A
10:50 am66 °FScattered clouds.3 mph60%30.21 "HgN/A
10:20 am64 °FScattered clouds.3 mph68%30.21 "HgN/A
9:50 am63 °FScattered clouds.5 mph73%30.18 "HgN/A
9:20 am63 °FScattered clouds.6 mph77%30.18 "HgN/A
8:50 am61 °FScattered clouds.5 mph83%30.21 "Hg6 mi
8:20 am59 °FScattered clouds.3 mph88%30.18 "Hg4 mi
7:50 am59 °FScattered clouds.1 mph94%30.18 "Hg4 mi
7:20 am57 °FFog.2 mph94%30.18 "Hg3 mi
6:50 am57 °FFog.1 mph94%30.18 "Hg3 mi
6:20 am57 °FFog.3 mph94%30.18 "Hg4 mi
5:50 am55 °FFog.2 mph100%30.18 "Hg4 mi
5:20 am55 °FPassing clouds.1 mph100%30.18 "Hg5 mi
4:50 am57 °FPassing clouds.1 mph94%30.18 "Hg5 mi
4:20 am57 °FPassing clouds.1 mph94%30.18 "HgN/A
3:50 am57 °FPassing clouds.1 mph94%30.18 "HgN/A
3:20 am57 °FPassing clouds.1 mph94%30.18 "HgN/A
2:50 am57 °FPassing clouds.2 mph94%30.18 "HgN/A
2:20 am59 °FPassing clouds.1 mph88%30.18 "HgN/A
1:50 am59 °FPassing clouds.1 mph88%30.18 "HgN/A
1:20 am59 °FPartly cloudy.5 mph88%30.18 "HgN/A
12:50 am59 °FPassing clouds.3 mph88%30.21 "HgN/A
12:20 am59 °FPassing clouds.2 mph88%30.21 "HgN/A
11:50 pm
Wed, May 24
59 °FPassing clouds.2 mph88%30.21 "HgN/A
11:20 pm59 °FPartly cloudy.1 mph88%30.21 "HgN/A
10:50 pm59 °FPassing clouds.6 mph88%30.21 "HgN/A
10:20 pm61 °FLight rain. Passing clouds.9 mph83%30.21 "Hg6 mi
9:50 pm64 °FLight rain. Passing clouds.6 mph64%30.21 "HgN/A
8:50 pm64 °FPartly sunny.6 mph64%30.18 "HgN/A
8:20 pm66 °FPartly sunny.7 mph60%30.18 "HgN/A
7:50 pm66 °FBroken clouds.10 mph56%30.18 "HgN/A
7:20 pm66 °FPassing clouds.9 mph56%30.18 "HgN/A
6:50 pm68 °FPassing clouds.10 mph53%30.18 "HgN/A
6:20 pm68 °FBroken clouds.12 mph53%30.18 "HgN/A
5:50 pm68 °FPartly sunny.13 mph56%30.18 "HgN/A
5:20 pm68 °FBroken clouds.13 mph56%30.21 "HgN/A
4:50 pm68 °FPartly sunny.13 mph56%30.21 "HgN/A
4:20 pm68 °FPassing clouds.12 mph53%30.21 "HgN/A
3:50 pm68 °FPassing clouds.10 mph53%30.21 "HgN/A
3:20 pm68 °FPassing clouds.12 mph53%30.21 "HgN/A
2:50 pm68 °FSunny.14 mph53%30.21 "Hg10 mi
2:20 pm68 °FPassing clouds.9 mph49%30.24 "HgN/A
Weather by CustomWeather, © 2017

See weather overviewHow to use our weather pages